Regional Weather Roundup
Issued by NWS Grand Forks, ND

Home | Current Version | Previous Version | Graphics & Text | Print | Product List | Glossary On
Versions: 1 2 3 4 5 6 7 8 9 10 11 12 13 14 15 16 17 18 19 20 21 22 23 24 25 26 27 28 29 30 31 32 33 34 35 36 37 38 39 40 41 42 43 44 45 46 47 48 49 50
000
ASUS43 KFGF 221831
RWRFGF
PRAIRIE TO PINES  WEATHER ROUNDUP
NATIONAL WEATHER SERVICE EASTERN NORTH DAKOTA/GRAND FORKS ND
100 PM CDT FRI SEP 22 2017

 **SATELLITE DATA USED TO AUGMENT SKY COVER AT AUTOMATED STATIONS**
 *****  WEATHER ACROSS EASTERN NORTH DAKOTA  *****

CITY           SKY/WX    TMP DP  RH WIND       PRES   REMARKS
GRAND FORKS    CLOUDY    68  56  65 NE12      29.73F
6HR MIN TEMP:  55; 6HR MAX TEMP:  68;

GRAND FRKS AFB CLOUDY    64  54  69 NE12      29.75F
DEVILS LAKE    CLOUDY    59  44  57 NE15      29.79R
6HR MIN TEMP:  51; 6HR MAX TEMP:  60;

FARGO          CLOUDY    81  68  64 NE5       29.67F
WAHPETON ARPT  FAIR      82  70  65 S17G26    29.67S
$$

 ***** WEATHER ACROSS CENTRAL AND WESTERN NORTH DAKOTA  *****

CITY           SKY/WX    TMP DP  RH WIND       PRES   REMARKS
BISMARCK       CLOUDY    56  45  66 N13G26    29.79F
6HR MIN TEMP:  54; 6HR MAX TEMP:  56; 6HR PCP: TRACE;

MINOT          LGT RAIN  50  43  77 NW21G30   29.89F
6HR MIN TEMP:  46; 6HR MAX TEMP:  50;

JAMESTOWN      CLOUDY    61  56  83 NE13      29.71F
6HR MIN TEMP:  56; 6HR MAX TEMP:  61; 6HR PCP: TRACE;

MINOT AFB      CLOUDY    49  44  82 N20G26    29.89F
GARRISON         N/A     48  41  76 N21G33    29.84F
WILLISTON      LGT RAIN  49  41  74 N13       30.00S
6HR MIN TEMP:  46; 6HR MAX TEMP:  49; 6HR PCP: TRACE;

DICKINSON      CLOUDY    47  39  74 N23G32    29.87F
6HR MIN TEMP:  46; 6HR MAX TEMP:  50; 6HR PCP: TRACE;

HETTINGER      CLOUDY    51  37  58 N23G30    29.84
6HR MIN TEMP:  49; 6HR MAX TEMP:  51; 6HR PCP: TRACE;

$$

 *****  OTHER AIRPORT OBSERVATIONS IN OUR AREA  *****

CITY           SKY/WX    TMP DP  RH WIND       PRES   REMARKS
WALHALLA       FAIR     N/A N/A N/A N14       29.85R
GRAFTON AIRPOR CLOUDY    66  55  68 N12       29.78S
VALLEY CITY AR CLOUDY    63  63 100 NE10G16   29.72F
CANDO          CLOUDY    57  45  62 N17       29.83S
CAVALIER APRT  CLOUDY    63  50  63 N12       29.82R
GWINNER        CLOUDY    72  66  83 N9        29.67F
SHEYENNE NWR     N/A     74  68  81 N5        29.95S
ROLLA          LGT RAIN  48  45  87 N21G32    29.88S
 ***** THE ABOVE OBSERVATIONS ARE NON NWS ARE NOT QUALITY
       CONTROLLED AND MAY MIS-REPORT RAIN FOR SNOW...
$$

  *****  WEATHER ACROSS NORTHERN MINNESOTA  *****

CITY           SKY/WX    TMP DP  RH WIND       PRES   REMARKS
FLAG ISLAND    PTSUNNY   64  55  72 NE8       29.83F
WARROAD        CLOUDY    64  59  82 NE10G16   29.82F
ROSEAU         FAIR      66  59  77 NE18      29.78F
HALLOCK          N/A     72  54  53 NE13      29.76F
THF RVR FALLS  PTSUNNY   73  64  73 E16G23    29.74F
6HR MIN TEMP:  60; 6HR MAX TEMP:  73;

BAUDETTE       CLOUDY    69  64  84 E10       29.82F
6HR MIN TEMP:  56; 6HR MAX TEMP:  69;

WASKISH        PTSUNNY   79  66  65 E12       29.78F
CROOKSTON      PTSUNNY   73  64  73 E14       29.71F
GREENBUSH NDAW   N/A     68  55  64 E14         N/A
$$
  *****  WEATHER ACROSS CENTRAL AND WEST MINNESOTA  *****

CITY           SKY/WX    TMP DP  RH WIND       PRES   REMARKS
FOSSTON        FAIR      82  66  57 E8        29.73S
BEMIDJI        PTSUNNY   77  67  71 E13       29.76F
6HR MIN TEMP:  61; 6HR MAX TEMP:  78;

PARK RAPIDS    CLOUDY    77  71  82 SE18      29.75F
6HR MIN TEMP:  67; 6HR MAX TEMP:  77;

ELBOW LAKE     CLOUDY    78  73  82 SE13      29.72S HAZE
WADENA         PTSUNNY   81  72  74 SE14      29.74S
DETROIT LAKES  PTSUNNY   79  72  78 SE13      29.73F
MOORHEAD       FAIR      82  72  69 SE12      29.67F
FERGUS FALLS   PTSUNNY   82  72  69 S20       29.68F
MORRIS MN      FAIR      84  73  70 SE17G24   29.70F HX  91
STAPLES        CLOUDY    81  72  74 SE14      29.75F
$$
  *****  WEATHER ELSEWHERE ACROSS MINNESOTA  *****

CITY           SKY/WX    TMP DP  RH WIND       PRES   REMARKS
DULUTH         FAIR      68  64  87 S9        29.86F
6HR MIN TEMP:  60; 6HR MAX TEMP:  69; 6HR PCP:  0.49;

INTRNTL FALLS  PTSUNNY   73  64  73 E9        29.84F
6HR MIN TEMP:  59; 6HR MAX TEMP:  74;

ELY            FAIR      73  61  64 SE3       29.88S
CLOQUET        FAIR      70  64  83 SE6       29.86F
WHEATON        PTSUNNY   82  70  65 SE10      29.69S
BRAINERD         N/A     78  71  79 MISG      29.80S
6HR MIN TEMP:  65; 6HR MAX TEMP:  79;

HIBBING        FAIR      75  64  68 SE12      29.85S
6HR MIN TEMP:  59; 6HR MAX TEMP:  76; 6HR PCP:  0.07;

ALEXANDRIA     CLOUDY    79  72  79 SE17G23   29.77F
6HR MIN TEMP:  67; 6HR MAX TEMP:  79;

SAINT CLOUD    PTSUNNY   83  74  74 SE15      29.80F
6HR MIN TEMP:  70; 6HR MAX TEMP:  81; 6HR PCP:  0.01;

MINNEAPOLIS    FAIR      89  73  59 S9        29.83F HX  97
6HR MIN TEMP:  74; 6HR MAX TEMP:  89;

$$

  *****  WEATHER ACROSS SOUTH DAKOTA  *****

CITY           SKY/WX    TMP DP  RH WIND       PRES   REMARKS
SIOUX FALLS    FAIR      88  73  61 S18G28    29.72S HX  95
6HR MIN TEMP:  76; 6HR MAX TEMP:  88;

BROOKINGS      FAIR      85  70  60 S23G30    29.72F
WATERTOWN      FAIR      84  71  65 S17G25    29.69F
6HR MIN TEMP:  71; 6HR MAX TEMP:  84;

HURON          FAIR      88  67  49 S18G26    29.64S HX  91
6HR MIN TEMP:  73; 6HR MAX TEMP:  89;

SISSETON         N/A     85  74  69 SE14      29.66F HX  92
ABERDEEN       FAIR      87  69  54 S14       29.62F HX  91
6HR MIN TEMP:  61; 6HR MAX TEMP:  88;

MITCHELL       FAIR      92  66  42 SW18G29   29.65F HX  94
PIERRE         PTSUNNY   70  55  59 W22       29.68R
6HR MIN TEMP:  57; 6HR MAX TEMP:  71;

MOBRIDGE       CLOUDY    64  57  78 N15       29.65S
RAPID CITY     MOSUNNY   59  39  47 NW31G40   29.83F
$$

  *****  SOME WEATHER IN NEARBY STATES *****

CITY           SKY/WX    TMP DP  RH WIND       PRES   REMARKS
GLASGOW MT     LGT RAIN  43  40  89 NW9       30.07R
6HR MIN TEMP:  41; 6HR MAX TEMP:  44; 6HR PCP:  0.04;

GREAT FALLS MT LGT RAIN  37  34  89 NE14      30.06F
6HR MIN TEMP:  34; 6HR MAX TEMP:  37; 6HR PCP:  0.05;

CHEYENNE WY    FAIR      63  38  39 NE6       29.88F
6HR MIN TEMP:  41; 6HR MAX TEMP:  65;

SCOTTSBLUFF NE FAIR      64  42  44 VRB6      29.84S
6HR MIN TEMP:  43; 6HR MAX TEMP:  64;

OMAHA NE       FAIR      90  71  53 SE22      29.83F HX  96
6HR MIN TEMP:  77; 6HR MAX TEMP:  90;

DES MOINES IA  FAIR      90  70  51 S20G25    29.92F HX  95
6HR MIN TEMP:  73; 6HR MAX TEMP:  90;

DAVENPORT IA   FAIR      88  68  51 S14G21    30.04F HX  91
6HR MIN TEMP:  71; 6HR MAX TEMP:  88;

CHICAGO IL     FAIR      93  63  36 SW13G18   30.05F HX  94
6HR MIN TEMP:  73; 6HR MAX TEMP:  93;

EAU CLAIRE WI  FAIR      89  70  53 S14G21    29.90S HX  94
6HR MIN TEMP:  73; 6HR MAX TEMP:  89;

LA CROSSE WI   FAIR      93  71  48 S17G25    29.93F HX 100
6HR MIN TEMP:  76; 6HR MAX TEMP:  93;

$$

  *****  SOME NATIONAL WEATHER *****

CITY           SKY/WX    TMP DP  RH WIND       PRES   REMARKS
LA GUARDIA NY  FAIR      79  56  45 N16       29.95F
6HR MIN TEMP:  68; 6HR MAX TEMP:  79;

RALEIGH NC     FAIR      84  63  49 NE8       30.05F
6HR MIN TEMP:  65; 6HR MAX TEMP:  86;

ATLANTA GA     FAIR      86  66  51 NE6       30.05F
6HR MIN TEMP:  70; 6HR MAX TEMP:  86;

NEW ORLEANS LA FAIR      89  71  55 N7        29.97F HX  95
6HR MIN TEMP:  74; 6HR MAX TEMP:  90;

OKLAHOMA CITY  FAIR      84  69  60 S16G23    29.96F
6HR MIN TEMP:  70; 6HR MAX TEMP:  85;

ALBUQUERQUE NM PTSUNNY   78  39  24 SW12G21   29.97F
6HR MIN TEMP:  60; 6HR MAX TEMP:  78;

SALT LAKE CITY CLOUDY    49  41  74 N13       29.91S
6HR MIN TEMP:  45; 6HR MAX TEMP:  52; 6HR PCP: TRACE;

LOS ANGELES CA FAIR      69  51  52 CALM      29.89F
6HR MIN TEMP:  59; 6HR MAX TEMP:  70;

BOISE ID       CLOUDY    45  41  86 W10       29.95R
6HR MIN TEMP:  42; 6HR M



USA.gov is the U.S. government's official web portal to all federal, state and local government web resources and services.